Погода в Азовском

Россия / Республика Крым     45°35′07″N   34°34′01″E
темп.,
°C
ветер,
м/с
пор.,
м/с
влажн.,
%
обл.,
%
осадки,
мм/ч
давл.,
гПа
погр.,
м
16 мая, вс
вс1600:00+14юв227599 0.0 101214
03:00+13в227563 0.0 101117
06:00+14всв367794 0.0 101094
09:00+21всв575783 0.0 1010581
12:00+24св5741100 0.1 1008862
15:00+23св6948100 0.5 1006866
18:00+21в347199 1.7 1004266
21:00+16с1288100 6.8 100313
17 мая, пн
пн1700:00+15зсз229695 1.1 100219
03:00+15з359713 1.1 1001104
06:00+14зюз359738 0.0 1003122
09:00+18зюз6787100 0.0 1004608
12:00+20зюз9107187 0.0 10061044
15:00+21зюз885946 0.1 10061281
18:00+19зюз686695 0.0 1007815
21:00+14зюз378320 0.0 1009137
18 мая, вт
вт1800:00+13юз35872 0.0 100886
03:00+12ююз22885 0.0 100815
06:00+13ююв22881 0.0 100730
09:00+18вюв2270100 0.1 1008548
12:00+16ююв4882100 0.6 1008347
15:00+22юз61058100 0.6 10061753
18:00+17зюз10156895 0.1 10081045
21:00+13юз61378100 0.1 1008464
19 мая, ср
ср1900:00+13ююз614735 0.0 1008445
03:00+12зюз7148399 0.0 1009729
06:00+14юз8147313 0.0 10091210
09:00+14зюз91476100 0.1 10101154
12:00+18зюз11155998 0.2 10111833
15:00+19з8145292 0.3 10132087
18:00+18зюз812550 0.0 10131368
21:00+13юз612750 0.0 1015274
20 мая, чт
чт2000:00+11юз47710 0.0 1015104
03:00+11юз22615 0.0 101515
06:00+11в226097 0.0 101516
09:00+17в4656100 0.0 1014320
12:00+23юв67345 0.0 10131231
15:00+24юв88400 0.0 10121341
18:00+21вюв81247100 0.0 1011705
21:00+15вюв513615 0.0 1011217